Hourly Weather Mayrhofen

Today, 14 August, Friday

Time Temperature Precipitation Wind Pressure Humidity
00:00 +11°C° 0 mm 1 mps 619 mmHg 91%
01:00 +11°C° 0 mm 1 mps 619 mmHg 90%
02:00 +10°C° 0 mm 1 mps 618 mmHg 90%
03:00 +9°C° 0 mm 0 mps 618 mmHg 91%
04:00 +9°C° 0 mm 0 mps 618 mmHg 91%
05:00 +11°C° 0.2 mm 1 mps 618 mmHg 90%
06:00 +12°C° 0.2 mm 1 mps 619 mmHg 88%
07:00 +13°C° 0.2 mm 1 mps 620 mmHg 86%
08:00 +14°C° 0.5 mm 1 mps 620 mmHg 84%
09:00 +15°C° 0.5 mm 1 mps 620 mmHg 82%
10:00 +16°C° 0.5 mm 1 mps 620 mmHg 80%
11:00 +16°C° 1 mm 1 mps 620 mmHg 81%
12:00 +16°C° 1 mm 1 mps 620 mmHg 82%
13:00 +16°C° 1 mm 1 mps 620 mmHg 83%
14:00 +16°C° 1.1 mm 1 mps 620 mmHg 84%
15:00 +15°C° 1.1 mm 1 mps 619 mmHg 84%
16:00 +15°C° 1.1 mm 1 mps 619 mmHg 85%
17:00 +14°C° 0.9 mm 1 mps 619 mmHg 87%
18:00 +13°C° 0.9 mm 1 mps 619 mmHg 90%
19:00 +12°C° 0.9 mm 1 mps 619 mmHg 93%
20:00 +12°C° 0.1 mm 1 mps 618 mmHg 92%
21:00 +11°C° 0.1 mm 1 mps 618 mmHg 92%
22:00 +10°C° 0.1 mm 1 mps 618 mmHg 92%
23:00 +10°C° 0 mm 1 mps 618 mmHg 92%

Tomorrow, 15 August, Saturday

Time Temperature Precipitation Wind Pressure Humidity
00:00 +10°C° 0 mm 1 mps 618 mmHg 92%
01:00 +10°C° 0 mm 1 mps 618 mmHg 91%
02:00 +9°C° 0 mm 1 mps 618 mmHg 92%
03:00 +9°C° 0 mm 1 mps 618 mmHg 92%
04:00 +9°C° 0 mm 1 mps 617 mmHg 92%
05:00 +10°C° 0 mm 1 mps 618 mmHg 91%
06:00 +11°C° 0 mm 1 mps 619 mmHg 89%
07:00 +12°C° 0 mm 1 mps 619 mmHg 87%
08:00 +14°C° 0 mm 1 mps 620 mmHg 79%
09:00 +16°C° 0 mm 1 mps 621 mmHg 70%
10:00 +19°C° 0 mm 1 mps 621 mmHg 62%
11:00 +20°C° 0.1 mm 1 mps 621 mmHg 58%
12:00 +21°C° 0.1 mm 1 mps 621 mmHg 55%
13:00 +22°C° 0.1 mm 1 mps 621 mmHg 51%
14:00 +21°C° 0.2 mm 1 mps 621 mmHg 54%
15:00 +20°C° 0.2 mm 2 mps 621 mmHg 57%
16:00 +20°C° 0.2 mm 2 mps 621 mmHg 61%
17:00 +19°C° 0.3 mm 1 mps 620 mmHg 70%
18:00 +16°C° 0.3 mm 1 mps 619 mmHg 80%
19:00 +14°C° 0.3 mm 1 mps 618 mmHg 90%
20:00 +13°C° 0 mm 1 mps 618 mmHg 92%
21:00 +12°C° 0 mm 1 mps 618 mmHg 93%
22:00 +11°C° 0 mm 1 mps 618 mmHg 95%
23:00 +10°C° 0 mm 1 mps 618 mmHg 95%

Day after tomorrow, 16 August, Sunday

Time Temperature Precipitation Wind Pressure Humidity
00:00 +10°C° 0 mm 1 mps 617 mmHg 95%
01:00 +10°C° 0 mm 1 mps 617 mmHg 95%
02:00 +10°C° 0 mm 1 mps 617 mmHg 94%
03:00 +9°C° 0 mm 1 mps 617 mmHg 94%
04:00 +8°C° 0 mm 0 mps 617 mmHg 93%
05:00 +10°C° 0 mm 0 mps 617 mmHg 89%
06:00 +11°C° 0 mm 0 mps 618 mmHg 85%
07:00 +13°C° 0 mm 0 mps 619 mmHg 81%
08:00 +15°C° 0 mm 0 mps 619 mmHg 72%
09:00 +19°C° 0 mm 1 mps 620 mmHg 63%
10:00 +21°C° 0 mm 1 mps 621 mmHg 54%
11:00 +22°C° 0.1 mm 1 mps 621 mmHg 50%
12:00 +23°C° 0.1 mm 1 mps 621 mmHg 47%
13:00 +23°C° 0.1 mm 1 mps 621 mmHg 43%
14:00 +23°C° 0.4 mm 1 mps 621 mmHg 47%
15:00 +22°C° 0.4 mm 1 mps 620 mmHg 50%
16:00 +22°C° 0.4 mm 1 mps 620 mmHg 53%
17:00 +20°C° 0.9 mm 1 mps 619 mmHg 64%
18:00 +18°C° 0.9 mm 1 mps 619 mmHg 75%
19:00 +15°C° 0.9 mm 1 mps 618 mmHg 86%
20:00 +14°C° 0.5 mm 1 mps 618 mmHg 87%
21:00 +14°C° 0.5 mm 1 mps 618 mmHg 88%
22:00 +13°C° 0.5 mm 1 mps 618 mmHg 89%
23:00 +13°C° 0 mm 1 mps 618 mmHg 88%

17 August, Monday

Time Temperature Precipitation Wind Pressure Humidity
00:00 +12°C° 0 mm 1 mps 617 mmHg 87%
01:00 +12°C° 0 mm 1 mps 617 mmHg 86%
02:00 +12°C° 0 mm 1 mps 617 mmHg 87%
03:00 +11°C° 0 mm 1 mps 617 mmHg 87%
04:00 +11°C° 0 mm 1 mps 616 mmHg 88%
05:00 +12°C° 0 mm 1 mps 617 mmHg 87%
06:00 +13°C° 0 mm 1 mps 617 mmHg 85%
07:00 +14°C° 0 mm 1 mps 617 mmHg 84%
08:00 +16°C° 0.3 mm 1 mps 618 mmHg 77%
09:00 +18°C° 0.3 mm 1 mps 619 mmHg 70%
10:00 +20°C° 0.3 mm 1 mps 620 mmHg 63%
11:00 +20°C° 0.6 mm 1 mps 619 mmHg 62%
12:00 +21°C° 0.6 mm 1 mps 619 mmHg 60%
13:00 +20°C° 0.6 mm 2 mps 619 mmHg 59%
14:00 +19°C° 1 mm 2 mps 619 mmHg 64%
15:00 +19°C° 1 mm 2 mps 619 mmHg 69%
16:00 +18°C° 1 mm 2 mps 618 mmHg 74%
17:00 +16°C° 1.1 mm 1 mps 618 mmHg 81%
18:00 +15°C° 1.1 mm 1 mps 618 mmHg 87%
19:00 +12°C° 1.1 mm 0 mps 617 mmHg 94%
20:00 +13°C° 1.7 mm 1 mps 617 mmHg 94%
21:00 +12°C° 1.7 mm 1 mps 618 mmHg 95%
22:00 +12°C° 1.7 mm 2 mps 618 mmHg 96%
23:00 +10°C° 2.1 mm 2 mps 618 mmHg 96%

18 August, Tuesday

Time Temperature Precipitation Wind Pressure Humidity
00:00 +10°C° 2.1 mm 2 mps 617 mmHg 96%
01:00 +9°C° 2.1 mm 2 mps 617 mmHg 96%
02:00 +9°C° 0.9 mm 2 mps 617 mmHg 96%
03:00 +9°C° 0.9 mm 2 mps 617 mmHg 95%
04:00 +10°C° 0.9 mm 1 mps 617 mmHg 95%
05:00 +10°C° 0.1 mm 1 mps 617 mmHg 93%
06:00 +10°C° 0.1 mm 1 mps 617 mmHg 91%
07:00 +11°C° 0.1 mm 1 mps 617 mmHg 89%
08:00 +12°C° 0 mm 1 mps 618 mmHg 81%
09:00 +14°C° 0 mm 1 mps 618 mmHg 73%
10:00 +15°C° 0 mm 2 mps 619 mmHg 65%
11:00 +16°C° 0.1 mm 2 mps 619 mmHg 62%
12:00 +17°C° 0.1 mm 2 mps 619 mmHg 59%
13:00 +18°C° 0.1 mm 2 mps 619 mmHg 56%
14:00 +17°C° 0.3 mm 2 mps 619 mmHg 61%
15:00 +16°C° 0.3 mm 2 mps 618 mmHg 67%
16:00 +16°C° 0.3 mm 2 mps 618 mmHg 72%
17:00 +14°C° 0.6 mm 2 mps 618 mmHg 79%
18:00 +13°C° 0.6 mm 2 mps 617 mmHg 86%
19:00 +12°C° 0.6 mm 2 mps 617 mmHg 93%
20:00 +11°C° 0.1 mm 1 mps 617 mmHg 94%
21:00 +10°C° 0.1 mm 1 mps 617 mmHg 95%
22:00 +10°C° 0.1 mm 1 mps 617 mmHg 95%
23:00 +9°C° 0 mm 1 mps 617 mmHg 95%

19 August, Wednesday

Time Temperature Precipitation Wind Pressure Humidity
00:00 +9°C° 0 mm 1 mps 617 mmHg 95%
01:00 +8°C° 0 mm 1 mps 617 mmHg 95%
02:00 +8°C° 0 mm 1 mps 616 mmHg 95%
03:00 +7°C° 0 mm 1 mps 616 mmHg 95%
04:00 +7°C° 0 mm 1 mps 616 mmHg 95%
05:00 +8°C° 0 mm 1 mps 616 mmHg 94%
06:00 +9°C° 0 mm 1 mps 617 mmHg 93%
07:00 +10°C° 0 mm 1 mps 617 mmHg 91%
08:00 +12°C° 0 mm 1 mps 618 mmHg 81%
09:00 +14°C° 0 mm 1 mps 619 mmHg 70%
10:00 +15°C° 0 mm 0 mps 619 mmHg 60%
11:00 +18°C° 0 mm 1 mps 619 mmHg 55%
12:00 +19°C° 0 mm 1 mps 619 mmHg 51%
13:00 +20°C° 0 mm 1 mps 620 mmHg 47%
14:00 +20°C° 0 mm 1 mps 619 mmHg 48%
15:00 +20°C° 0 mm 1 mps 619 mmHg 49%
16:00 +20°C° 0 mm 1 mps 619 mmHg 50%
17:00 +18°C° 0 mm 1 mps 618 mmHg 61%
18:00 +14°C° 0 mm 1 mps 617 mmHg 73%
19:00 +11°C° 0 mm 0 mps 616 mmHg 85%
20:00 +12°C° 0 mm 1 mps 616 mmHg 86%
21:00 +11°C° 0 mm 1 mps 616 mmHg 88%
22:00 +10°C° 0 mm 1 mps 616 mmHg 90%
23:00 +10°C° 0 mm 1 mps 616 mmHg 90%
Show more